Regional Weather Roundup
Issued by NWS

Home | Current Version | Previous Version | Text Only | Print | Product List | Glossary Off
Versions: 1 2 3 4 5 6 7 8 9 10 11 12 13 14 15 16 17 18 19 20 21 22 23 24 25 26 27 28

000
ASUS45 KSLC 222210
RWRUT

UTAH REGIONAL WEATHER ROUNDUP
NATIONAL WEATHER SERVICE SALT LAKE CITY UT
300 PM MST WED FEB 22 2017

UTZ001>011-023>025-222300-

NORTHERN UTAH

CITY           SKY/WX    TMP DP  RH WIND       PRES   REMARKS
BRIGHAM CITY     N/A     41  32  70 S8        29.85F
DUGWAY         LGT RAIN  37  34  90 E6        29.84  WCI  32
HILL AFB       CLOUDY    38  31  75 S8        29.83F WCI  33
LOGAN          CLOUDY    41  33  73 VRB6      29.83F
OGDEN          CLOUDY    39  32  76 SE7       29.83F WCI  34
SALT LAKE CITY CLOUDY    41  33  73 S6        29.83F
TOOELE VALLEY  DRIZZLE   39  34  81 SE10      29.86F WCI  32
WENDOVER       CLOUDY    41  25  52 NW7       29.84F
HEBER CITY     SNOW      32  30  93 N3        29.82F VSB 1/2
WEST JORDAN    CLOUDY    42  37  82 S6        29.85S

$$

UTZ011>015-024>027-222300-

CENTRAL/NORTHEAST UTAH

CITY           SKY/WX    TMP DP  RH WIND       PRES   REMARKS
PROVO AIRPORT  LGT SNOW  36  32  87 CALM      29.85F FOG
MOAB/CANYONLAN MOSUNNY   63  24  22 SW20G30   29.69F
DELTA          CLOUDY    43  34  70 N17       29.79F
PRICE          CLOUDY    49  29  46 NW7       29.72F
RICHFIELD      SUNNY     57  25  28 SW22G28   29.73F
ROOSEVELT      CLOUDY    41  32  70 E3        29.81F
VERNAL         PTSUNNY   40  32  73 N7        29.80F

$$

UTZ013>016-019>022-027-222300-

SOUTHERN UTAH

CITY           SKY/WX    TMP DP  RH WIND       PRES   REMARKS
BRYCE CANYON   MOSUNNY   41  23  48 SW23G30   29.82F
CEDAR CITY     MOSUNNY   53  29  39 SW23G37   29.77F
MILFORD        MOSUNNY   55  22  27 SW32G41   29.75F
ST GEORGE      CLOUDY    62  33  33 W18G25    29.79F
HANKSVILLE     SUNNY     64  19  17 SW24G31   29.71F
KANAB          MOSUNNY   61  23  23 SW21G31   29.84F
BLANDING       PTSUNNY   57  20  24 SW15G26   29.89F

$$

REGIONAL REPORTS     COLORADO/ARIZONA

CITY           SKY/WX    TMP DP  RH WIND       PRES   REMARKS
CRAIG, CO      LGT SNOW  35  29  78 N8        29.83F WCI  29
GRAND JUNCTION PTSUNNY   60  26  27 NW13      29.71F
RIFLE, CO      PTSUNNY   56  28  34 W16       29.73F
MONTROSE, CO   SUNNY     59  20  22 SW26G43   29.78F
CORTEZ, CO     CLOUDY    61  22  22 SW26G37   29.86F
COLORADO CITY    N/A     61  32  33 W21G29    29.85F
PAGE, AZ       CLOUDY    64  12  13 SW22G37   29.74F
GRAND CANYON   CLOUDY    50  26  39 SW24G35   29.91F
KINGMAN, AZ    CLOUDY    63  18  17 SW29      29.87F
FLAGSTAFF, AZ  CLOUDY    46  37  71 S16G24    29.98F

$$

REGIONAL REPORTS    NEVADA/IDAHO/WYOMING

CITY           SKY/WX    TMP DP  RH WIND       PRES   REMARKS
LAS VEGAS, NV  MOSUNNY   64  24  21 SW10G24   29.81F
ELY, NY        CLOUDY    30  14  51 NW15      29.91F WCI  19
ELKO, NV       FLURRIES  33  20  58 SW22G35   29.88F WCI  21
POCATELLO, ID  CLOUDY    38  24  57 NW8       29.86F WCI  32
BURLEY, ID     LGT SNOW  36  27  69 W5        29.84F WCI  32
FORT BRIDGER,  CLOUDY    31  29  94 NE5       29.85F WCI  26
EVANSTON, WY   LGT SNOW  29  24  82 N5        29.81F WCI  24
ROCK SPRINGS,  CLOUDY    30  23  75 NW7       29.84F WCI  23
KEMMERER, WY   LGT SNOW  32  21  64 NW3       29.83F

$$




USA.gov is the U.S. government's official web portal to all federal, state and local government web resources and services.